Location: Banff
(51.1670°N, 115.5670°W)
Time: 09:12:10
(UTC-06:00)

Amateur Radio Satellites - All Passes

Search period start: 03 September 2015 08:42
Search period end: 04 September 2015 08:42
Location: Banff, 51.1670°N, 115.5670°W

Satellite Date Start Highest point End Downlink Frequencies (MHz)
Time Altitude Azimuth
AO-7 03 Sep 08:44:17 08:50:27 23° 319° (NW) 08:56:26 29.400- 29.500
CUSAT 1 03 Sep 08:46:00 08:48:51 13° 41° (NE) 08:52:12 437.405
PRISM 03 Sep 08:56:58 09:00:24 25° 267° (W) 09:03:45 437.425
PCSat 03 Sep 08:59:54 09:04:13 24° 27° (NNE) 09:08:35 145.827
STRAND 1 03 Sep 08:59:59 09:04:08 24° 269° (W) 09:08:12 437.568
HO-68 03 Sep 09:05:46 09:11:05 22° 87° (E) 09:16:36 435.675
AUBIESAT-1 03 Sep 09:10:03 09:11:17 11° 46° (NE) 09:12:40 437.475
M-CUBED/EXP-1 PRIME 03 Sep 09:16:46 09:19:11 14° 49° (NE) 09:21:42 437.505
Cubesat XI-IV 03 Sep 09:18:00 09:22:56 39° 296° (WNW) 09:27:49 437.490
AIST 1 03 Sep 09:27:11 09:31:24 60° 284° (WNW) 09:35:38
TIGRISAT 03 Sep 09:27:42 09:29:30 12° 53° (NE) 09:31:27 435.000
SO-50 03 Sep 09:32:29 09:37:30 81° 48° (NE) 09:42:25 436.795
DANDE 03 Sep 09:33:07 09:37:29 17° 49° (NE) 09:42:32 436.750
YUBILEINY 03 Sep 09:38:18 09:47:03 66° 267° (W) 09:55:42 435.215
CUTE 1.7 + AOD 2 03 Sep 09:40:56 09:44:32 27° 93° (E) 09:48:09 437.475
ANTELSAT 03 Sep 09:44:37 09:47:33 17° 57° (ENE) 09:50:38 437.575/2403.000
BRITE-PL 03 Sep 09:45:34 09:51:05 79° 286° (WNW) 09:56:47 437.365/2234.400
Cosmos 2504 03 Sep 09:52:12 09:59:45 34° 61° (ENE) 10:07:05 435.465 / 435.565
CANX-2 03 Sep 09:55:09 09:59:10 40° 97° (E) 10:03:09 2200.000
CUBEBUG 2 03 Sep 09:58:55 10:01:26 15° 84° (E) 10:04:05 437.445
GOMX 1 03 Sep 10:00:27 10:05:56 90° 289° (WNW) 10:11:28 467.674
DOVE 4 03 Sep 10:00:32 10:05:50 63° 100° (E) 10:11:05 437.250
UWE-3 03 Sep 10:00:48 10:02:16 12° 82° (E) 10:03:57 435.000/436.395/437.385
CUTE-I 03 Sep 10:02:51 10:06:43 20° 304° (NW) 10:10:27 437.470
ISS 03 Sep 10:03:12 10:06:16 39° 153° (SSE) 10:09:20 145.825
QB50P1 03 Sep 10:10:36 10:11:40 11° 54° (NE) 10:12:54 145.935-145.965
SEEDS 03 Sep 10:11:34 10:15:35 43° 98° (E) 10:19:34 437.485
CINEMA 3 03 Sep 10:25:49 10:30:44 50° 98° (E) 10:35:30 145.822/145.860
CUSAT 1 03 Sep 10:26:33 10:33:39 41° 64° (ENE) 10:41:22 437.405
COMPASS 1 03 Sep 10:28:43 10:32:47 50° 99° (E) 10:36:50 437.405
Cosmos 2491 03 Sep 10:32:37 10:41:21 78° 283° (WNW) 10:50:08 435.465 / 435.565
Oscar 11 03 Sep 10:32:48 10:36:18 24° 92° (E) 10:39:51 145.826/435.025
UNISAT 6 03 Sep 10:33:44 10:38:06 40° 67° (ENE) 10:42:32 437.425
AAUSAT CUBESAT 2 03 Sep 10:36:24 10:40:28 51° 100° (E) 10:44:30 437.432
AO-7 03 Sep 10:38:51 10:40:14 10° 346° (NNW) 10:41:28 29.400- 29.500
AUBIESAT-1 03 Sep 10:40:36 10:45:10 52° 64° (ENE) 10:49:35 437.475
DELFI C3 03 Sep 10:41:05 10:43:53 19° 90° (E) 10:46:47 145.870
PCSat 03 Sep 10:43:07 10:48:35 73° 51° (NE) 10:54:00 145.827
M-CUBED/EXP-1 PRIME 03 Sep 10:48:33 10:53:18 69° 67° (ENE) 10:57:54 437.505
HO-68 03 Sep 10:52:36 10:59:52 89° 289° (WNW) 11:07:05 435.675
TIGRISAT 03 Sep 11:00:46 11:05:25 66° 73° (ENE) 11:10:07 435.000
BUGSAT 1 03 Sep 11:05:24 11:08:24 20° 61° (ENE) 11:11:31 437.445
DUCHIFAT 1 03 Sep 11:09:33 11:13:19 32° 66° (ENE) 11:17:10 145.980
POLYITAN 1 03 Sep 11:10:11 11:14:04 34° 66° (ENE) 11:18:00 437.675
POPSAT HIP 1 03 Sep 11:11:37 11:15:29 34° 66° (ENE) 11:19:25 437.405
SO-50 03 Sep 11:13:55 11:17:32 20° 246° (WSW) 11:20:59 436.795
DANDE 03 Sep 11:14:57 11:22:13 56° 70° (ENE) 11:30:33 436.750
CUTE 1.7 + AOD 2 03 Sep 11:16:36 11:20:33 37° 292° (WNW) 11:24:26 437.475
ANTELSAT 03 Sep 11:19:02 11:23:46 85° 256° (WSW) 11:28:31 437.575/2403.000
ZACube-1 03 Sep 11:21:44 11:26:08 48° 98° (E) 11:30:25 437.345
BRITE-PL 03 Sep 11:25:18 11:28:54 18° 304° (NW) 11:32:25 437.365/2234.400
FUNcube-1 03 Sep 11:25:46 11:30:11 51° 99° (E) 11:34:29 145.935
NANOSAT C BR1 03 Sep 11:27:46 11:31:51 47° 69° (ENE) 11:36:00 145.865
QB50P2 03 Sep 11:29:02 11:33:10 51° 70° (ENE) 11:37:23 145.880/145.840
CANX-2 03 Sep 11:31:22 11:34:56 26° 296° (WNW) 11:38:25 2200.000
VELOX 1 03 Sep 11:32:30 11:33:31 11° 84° (E) 11:34:46 145.980
CUBEBUG 2 03 Sep 11:34:05 11:38:51 83° 285° (WNW) 11:43:25 437.445
UWE-3 03 Sep 11:35:01 11:39:40 82° 103° (ESE) 11:44:10 435.000/436.395/437.385
YUBILEINY 03 Sep 11:37:07 11:42:16 17° 288° (WNW) 11:46:59 435.215
DOVE 4 03 Sep 11:38:50 11:43:12 26° 299° (WNW) 11:47:28 437.250
ISS 03 Sep 11:39:16 11:42:33 86° 350° (N) 11:45:49 145.825
GOMX 1 03 Sep 11:39:34 11:43:25 20° 303° (WNW) 11:47:10 467.674
QB50P1 03 Sep 11:42:32 11:46:46 67° 73° (ENE) 11:51:03 145.935-145.965
HUMSAT D 03 Sep 11:43:10 11:47:01 33° 95° (E) 11:50:50 437.325/437.525
Cosmos 2504 03 Sep 11:44:17 11:52:49 71° 265° (W) 12:00:48 435.465 / 435.565
SEEDS 03 Sep 11:47:44 11:51:10 24° 296° (WNW) 11:54:31 437.485
CINEMA 3 03 Sep 12:03:23 12:07:40 28° 298° (WNW) 12:11:48 145.822/145.860
COMPASS 1 03 Sep 12:04:59 12:08:10 21° 298° (WNW) 12:11:15 437.405
DX 1 03 Sep 12:05:28 12:09:23 31° 95° (E) 12:13:20 434.975-435.025
Oscar 11 03 Sep 12:08:34 12:12:42 43° 291° (WNW) 12:16:46 145.826/435.025
CUSAT 1 03 Sep 12:08:59 12:16:36 63° 264° (W) 12:24:41 437.405
UNISAT 6 03 Sep 12:10:46 12:14:58 31° 266° (W) 12:19:09 437.425
AAUSAT CUBESAT 2 03 Sep 12:12:38 12:15:46 21° 298° (WNW) 12:18:47 437.432
UKube-1 03 Sep 12:13:26 12:17:23 33° 96° (E) 12:21:21 .
DELFI C3 03 Sep 12:15:22 12:19:15 49° 289° (WNW) 12:23:06 145.870
AUBIESAT-1 03 Sep 12:16:08 12:20:04 25° 262° (W) 12:23:50 437.475
M-CUBED/EXP-1 PRIME 03 Sep 12:24:58 12:28:27 19° 264° (W) 12:31:47 437.505
PCSat 03 Sep 12:27:16 12:31:32 23° 250° (WSW) 12:35:41 145.827
AO-7 03 Sep 12:27:33 12:29:10 11° 15° (NNE) 12:30:57 29.400- 29.500
GONETS M04 03 Sep 12:29:22 12:35:36 21° 49° (NE) 12:42:07
CUBEBUG 1 03 Sep 12:30:57 12:34:36 25° 93° (E) 12:38:20 437.445
50 SAT 03 Sep 12:33:18 12:37:04 45° 99° (E) 12:40:46 437.505
Cosmos 2491 03 Sep 12:33:19 12:40:00 23° 309° (NW) 12:46:27 435.465 / 435.565
ESTCUBE 1 03 Sep 12:36:48 12:40:54 34° 96° (E) 12:45:01 437.505/2401.250
AISAT 03 Sep 12:39:09 12:43:29 46° 99° (E) 12:47:49 437.250
TIGRISAT 03 Sep 12:39:14 12:42:38 19° 272° (W) 12:45:57 435.000
BUGSAT 1 03 Sep 12:39:30 12:43:32 53° 260° (W) 12:47:39 437.445
Oscar 19 03 Sep 12:39:41 12:43:23 21° 57° (ENE) 12:47:13 437.125/150
HO-68 03 Sep 12:41:06 12:46:50 26° 310° (NW) 12:52:24 435.675
DUCHIFAT 1 03 Sep 12:45:15 12:49:07 32° 265° (W) 12:52:59 145.980
POLYITAN 1 03 Sep 12:46:09 12:49:59 31° 265° (W) 12:53:50 437.675
POPSAT HIP 1 03 Sep 12:47:35 12:51:23 30° 265° (W) 12:55:12 437.405
DANDE 03 Sep 12:58:16 13:05:21 44° 268° (W) 13:13:10 436.750
ZACube-1 03 Sep 12:58:32 13:02:14 25° 297° (WNW) 13:05:48 437.345
ANTELSAT 03 Sep 12:59:07 13:01:21 13° 276° (W) 13:03:22 437.575/2403.000
FUNcube-1 03 Sep 13:02:36 13:06:13 23° 298° (WNW) 13:09:41 145.935
NANOSAT C BR1 03 Sep 13:04:35 13:07:57 22° 269° (W) 13:11:16 145.865
QB50P2 03 Sep 13:06:06 13:09:23 21° 270° (W) 13:12:35 145.880/145.840
VELOX 1 03 Sep 13:06:24 13:10:55 79° 104° (ESE) 13:15:24 145.980
TISAT 1 03 Sep 13:08:41 13:10:26 12° 85° (E) 13:12:21 437.305
CUBEBUG 2 03 Sep 13:12:09 13:14:49 15° 305° (NW) 13:17:18 437.445
UWE-3 03 Sep 13:12:38 13:15:37 17° 303° (WNW) 13:18:25 435.000/436.395/437.385
ISS 03 Sep 13:15:44 13:19:01 84° 194° (SSW) 13:22:17 145.825
Cosmos 2499 03 Sep 13:16:20 13:20:02 13° 37° (NE) 13:24:01 435.465 / 435.565
HUMSAT D 03 Sep 13:18:56 13:22:43 31° 294° (WNW) 13:26:24 437.325/437.525
QB50P1 03 Sep 13:20:25 13:23:08 16° 272° (W) 13:25:43 145.935-145.965
Cosmos 2504 03 Sep 13:38:13 13:43:33 18° 287° (WNW) 13:48:22 435.465 / 435.565
DX 1 03 Sep 13:41:39 13:45:41 35° 294° (WNW) 13:49:39 434.975-435.025
Gurwin Techsat 1B 03 Sep 13:43:50 13:48:01 25° 59° (ENE) 13:52:18 435.225
ITAMSAT 1 03 Sep 13:44:57 13:48:44 21° 57° (ENE) 13:52:38 435.822/435.867
JAS-2 03 Sep 13:49:22 13:55:23 26° 52° (NE) 14:01:27 435.910
UKube-1 03 Sep 13:49:35 13:53:30 32° 295° (WNW) 13:57:21 .
SPROUT 03 Sep 13:50:30 13:54:45 50° 99° (E) 13:59:00 437.525
CUSAT 1 03 Sep 13:53:23 13:58:03 17° 282° (WNW) 14:02:28 437.405
CUBEBUG 1 03 Sep 14:06:56 14:11:09 43° 292° (WNW) 14:15:20 437.445
50 SAT 03 Sep 14:08:24 14:11:20 20° 297° (WNW) 14:14:10 437.505
SWISSCUBE 03 Sep 14:10:29 14:12:01 12° 84° (E) 14:13:49 437.505
AO-7 03 Sep 14:12:51 14:19:02 25° 42° (NE) 14:25:22 29.400- 29.500
ESTCUBE 1 03 Sep 14:13:42 14:17:46 34° 294° (WNW) 14:21:48 437.505/2401.250
AISAT 03 Sep 14:16:06 14:19:51 26° 297° (WNW) 14:23:32 437.250
Oscar 19 03 Sep 14:17:02 14:22:13 79° 255° (WSW) 14:27:29 437.125/150
GONETS M04 03 Sep 14:25:36 14:34:25 72° 76° (ENE) 14:43:16
TISAT 1 03 Sep 14:42:33 14:46:52 86° 286° (WNW) 14:51:09 437.305
RS-15 03 Sep 14:42:36 14:46:13 13° 93° (E) 14:50:48 29.354- 29.394
VELOX 1 03 Sep 14:44:02 14:46:57 17° 302° (WNW) 14:49:44 145.980
DANDE 03 Sep 14:46:10 14:47:07 10° 286° (WNW) 14:47:30 436.750
ITUPSAT 1 03 Sep 14:48:53 14:52:39 23° 91° (E) 14:56:30 437.325
ISS 03 Sep 14:52:19 14:55:11 28° 211° (SSW) 14:58:01 145.825
Cosmos 2499 03 Sep 15:08:05 15:16:18 43° 65° (ENE) 15:24:06 435.465 / 435.565
BEESAT 03 Sep 15:19:40 15:24:13 43° 98° (E) 15:28:46 436.000
Gurwin Techsat 1B 03 Sep 15:22:20 15:27:37 65° 258° (WSW) 15:32:57 435.225
ITAMSAT 1 03 Sep 15:22:36 15:27:46 75° 255° (WSW) 15:32:59 435.822/435.867
SPROUT 03 Sep 15:27:07 15:30:34 23° 298° (WNW) 15:33:55 437.525
JAS-2 03 Sep 15:31:40 15:39:31 82° 72° (ENE) 15:47:19 435.910
BEESAT 3 03 Sep 15:37:32 15:41:27 47° 124° (SE) 15:45:25 437.485
KKS-1 03 Sep 15:42:35 15:45:03 15° 87° (E) 15:47:40 437.445
SWISSCUBE 03 Sep 15:46:00 15:50:48 79° 105° (ESE) 15:55:33 437.505
BEESAT 2 03 Sep 15:54:10 15:58:09 52° 125° (SE) 16:02:11 435.950
HORYU 2 03 Sep 15:56:43 16:00:51 37° 66° (ENE) 16:05:01 437.375
Oscar 19 03 Sep 16:00:03 16:02:34 13° 277° (W) 16:04:49 437.125/150
AO-7 03 Sep 16:02:22 16:10:39 72° 64° (ENE) 16:18:58 29.400- 29.500
TISAT 1 03 Sep 16:19:50 16:22:00 14° 304° (NW) 16:24:02 437.305
GONETS M04 03 Sep 16:23:09 16:30:41 32° 278° (W) 16:38:02
ITUPSAT 1 03 Sep 16:26:13 16:30:53 53° 291° (WNW) 16:35:31 437.325
RS-15 03 Sep 16:45:32 16:55:55 53° 116° (ESE) 17:06:52 29.354- 29.394
STARS 03 Sep 16:51:21 16:55:32 38° 97° (E) 16:59:42 437.465
AIST 2 03 Sep 16:51:41 16:55:44 44° 123° (ESE) 16:59:48 435.215
BEESAT 03 Sep 16:57:47 17:01:56 30° 297° (WNW) 17:06:02 436.000
Cosmos 2499 03 Sep 17:01:23 17:09:50 55° 269° (W) 17:17:41 435.465 / 435.565
ITAMSAT 1 03 Sep 17:06:07 17:08:18 12° 277° (W) 17:10:15 435.822/435.867
Gurwin Techsat 1B 03 Sep 17:07:25 17:08:48 11° 279° (W) 17:09:52 435.225
BEESAT 3 03 Sep 17:15:49 17:19:31 32° 325° (NW) 17:23:14 437.485
KKS-1 03 Sep 17:17:47 17:22:19 78° 286° (WNW) 17:26:47 437.445
JAS-2 03 Sep 17:18:45 17:25:21 28° 273° (W) 17:31:46 435.910
SWISSCUBE 03 Sep 17:24:51 17:28:08 18° 303° (WNW) 17:31:18 437.505
Cubesat XI-IV 03 Sep 17:27:06 17:30:51 20° 56° (NE) 17:34:44 437.490
BEESAT 2 03 Sep 17:32:43 17:36:24 30° 326° (NW) 17:40:05 435.950
HORYU 2 03 Sep 17:33:31 17:37:33 31° 265° (W) 17:41:33 437.375
MOZHAYETS 4 03 Sep 17:52:44 17:57:07 44° 98° (E) 18:01:29
AO-7 03 Sep 17:56:48 18:04:12 33° 267° (W) 18:11:28 29.400- 29.500
HO-68 03 Sep 17:59:38 18:00:26 10° 30° (NNE) 18:01:29 435.675
ITUPSAT 1 03 Sep 18:06:58 18:07:50 10° 310° (NW) 18:08:31 437.325
CUTE-I 03 Sep 18:09:38 18:14:31 39° 64° (ENE) 18:19:27 437.470
STARS 03 Sep 18:27:58 18:31:52 30° 296° (WNW) 18:35:43 437.465
AIST 2 03 Sep 18:30:27 18:34:24 35° 324° (NW) 18:38:20 435.215
O/OREOS (USA 219) 03 Sep 18:38:24 18:41:10 16° 101° (E) 18:44:06 437.305
Cosmos 2491 03 Sep 18:40:14 18:46:24 21° 49° (NE) 18:52:52 435.465 / 435.565
KKS-1 03 Sep 18:56:00 18:58:15 13° 305° (NW) 19:00:21 437.445
BEESAT 3 03 Sep 18:56:26 18:58:36 14° 347° (NNW) 19:00:43 437.485
RS-15 03 Sep 18:57:14 19:08:16 65° 324° (NW) 19:19:51 29.354- 29.394
Cosmos 2499 03 Sep 18:57:18 19:01:04 13° 292° (WNW) 19:04:16 435.465 / 435.565
Cubesat XI-IV 03 Sep 19:05:04 19:10:25 83° 255° (WSW) 19:15:47 437.490
BEESAT 2 03 Sep 19:13:30 19:15:39 14° 349° (N) 19:17:44 435.950
BRITE-PL 03 Sep 19:24:11 19:28:13 31° 63° (ENE) 19:32:36 437.365/2234.400
STRAND 1 03 Sep 19:26:31 19:28:40 13° 84° (E) 19:31:05 437.568
AIST 1 03 Sep 19:28:42 19:32:59 57° 76° (ENE) 19:37:18
MOZHAYETS 4 03 Sep 19:30:18 19:34:11 27° 296° (WNW) 19:37:59
DOVE 4 03 Sep 19:35:19 19:38:37 19° 57° (ENE) 19:42:10 437.250
GOMX 1 03 Sep 19:36:45 19:40:42 27° 61° (ENE) 19:44:57 467.674
HO-68 03 Sep 19:40:00 19:46:04 32° 54° (NE) 19:52:16 435.675
CUTE-I 03 Sep 19:49:41 19:54:38 38° 264° (W) 19:59:35 437.470
COMPASS 1 03 Sep 19:52:54 19:53:43 11° 55° (NE) 19:54:43 437.405
CUBESAT XI-V 03 Sep 19:55:17 19:59:56 70° 102° (ESE) 20:04:36 437.345
CINEMA 3 03 Sep 19:57:46 20:00:27 15° 55° (NE) 20:03:20 145.822/145.860
AAUSAT CUBESAT 2 03 Sep 20:00:08 20:00:59 11° 55° (NE) 20:02:00 437.432
AIST 2 03 Sep 20:11:37 20:14:07 15° 347° (NNW) 20:16:34 435.215
O/OREOS (USA 219) 03 Sep 20:15:31 20:20:04 74° 299° (WNW) 20:24:42 437.305
PRISM 03 Sep 20:33:10 20:36:48 30° 96° (E) 20:40:29 437.425
BEESAT 3 03 Sep 20:36:04 20:38:06 13° 11° (N) 20:40:09 437.485
Cosmos 2491 03 Sep 20:36:28 20:45:15 72° 76° (ENE) 20:54:02 435.465 / 435.565
CUTE 1.7 + AOD 2 03 Sep 20:38:28 20:42:25 37° 68° (ENE) 20:46:23 437.475
Cubesat XI-IV 03 Sep 20:48:34 20:51:28 14° 276° (W) 20:54:09 437.490
ZACube-1 03 Sep 20:49:09 20:51:05 13° 55° (NE) 20:53:11 437.345
YUBILEINY 03 Sep 20:50:01 20:57:26 33° 82° (E) 21:05:04 435.215
CANX-2 03 Sep 20:52:43 20:56:55 56° 71° (ENE) 21:01:07 2200.000
FUNcube-1 03 Sep 20:52:48 20:54:53 13° 55° (NE) 20:57:09 145.935
BEESAT 2 03 Sep 20:53:06 20:55:15 14° 12° (NNE) 20:57:26 435.950
CUBEBUG 2 03 Sep 21:01:28 21:05:12 24° 61° (ENE) 21:09:04 437.445
UWE-3 03 Sep 21:01:54 21:05:14 20° 60° (ENE) 21:08:40 435.000/436.395/437.385
BRITE-PL 03 Sep 21:02:21 21:06:39 40° 265° (W) 21:11:18 437.365/2234.400
STRAND 1 03 Sep 21:03:41 21:08:51 79° 106° (ESE) 21:13:58 437.568
AIST 1 03 Sep 21:07:17 21:10:16 18° 274° (W) 21:13:07
SEEDS 03 Sep 21:08:12 21:12:22 58° 72° (ENE) 21:16:33 437.485
DOVE 4 03 Sep 21:10:57 21:15:44 82° 256° (WSW) 21:20:53 437.250
RS-15 03 Sep 21:12:32 21:23:09 42° 355° (N) 21:34:15 29.354- 29.394
GOMX 1 03 Sep 21:13:57 21:18:33 51° 262° (W) 21:23:30 467.674
COMPASS 1 03 Sep 21:24:28 21:28:39 68° 74° (ENE) 21:32:51 437.405
HO-68 03 Sep 21:26:10 21:33:20 73° 255° (WSW) 21:40:34 435.675
AAUSAT CUBESAT 2 03 Sep 21:31:41 21:35:51 69° 73° (ENE) 21:40:02 437.432
CINEMA 3 03 Sep 21:32:03 21:36:52 78° 75° (ENE) 21:41:54 145.822/145.860
Oscar 11 03 Sep 21:32:17 21:36:15 36° 67° (ENE) 21:40:15 145.826/435.025
DELFI C3 03 Sep 21:32:54 21:36:09 24° 64° (ENE) 21:39:27 145.870
CUBESAT XI-V 03 Sep 21:33:37 21:36:56 19° 301° (WNW) 21:40:10 437.345
AIST 2 03 Sep 21:52:01 21:54:17 14° 10° (N) 21:56:33 435.215
O/OREOS (USA 219) 03 Sep 21:57:26 22:00:23 16° 322° (NW) 22:03:13 437.305
AISAT 03 Sep 22:08:12 22:10:10 13° 54° (NE) 22:12:17 437.250
PRISM 03 Sep 22:08:33 22:12:15 32° 294° (WNW) 22:15:55 437.425
ESTCUBE 1 03 Sep 22:09:11 22:09:35 10° 52° (NE) 22:10:11 437.505/2401.250
BEESAT 3 03 Sep 22:13:36 22:17:13 30° 34° (NE) 22:20:49 437.485
CUTE 1.7 + AOD 2 03 Sep 22:14:42 22:18:25 27° 267° (W) 22:22:05 437.475
ZACube-1 03 Sep 22:22:07 22:26:41 72° 73° (ENE) 22:31:18 437.345
FUNcube-1 03 Sep 22:25:54 22:30:29 75° 72° (ENE) 22:35:06 145.935
CANX-2 03 Sep 22:30:05 22:33:12 19° 271° (W) 22:36:13 2200.000
Cosmos 2504 03 Sep 22:30:44 22:36:22 21° 75° (ENE) 22:42:27 435.465 / 435.565
BEESAT 2 03 Sep 22:30:44 22:34:27 32° 35° (NE) 22:38:09 435.950
VELOX 1 03 Sep 22:33:57 22:37:06 20° 60° (ENE) 22:40:22 145.980
Cosmos 2491 03 Sep 22:34:03 22:41:31 32° 278° (W) 22:48:49 435.465 / 435.565
UWE-3 03 Sep 22:36:38 22:41:18 69° 258° (WSW) 22:46:01 435.000/436.395/437.385
CUBEBUG 2 03 Sep 22:36:55 22:41:33 56° 260° (W) 22:46:18 437.445
HUMSAT D 03 Sep 22:39:22 22:43:30 46° 69° (ENE) 22:47:40 437.325/437.525
STRAND 1 03 Sep 22:43:50 22:47:32 20° 304° (WNW) 22:51:07 437.568
YUBILEINY 03 Sep 22:44:54 22:53:42 70° 285° (WNW) 23:02:34 435.215
SEEDS 03 Sep 22:45:35 22:48:33 18° 271° (W) 22:51:24 437.485
DOVE 4 03 Sep 22:52:10 22:54:29 13° 279° (W) 22:56:38 437.250
COMPASS 1 03 Sep 23:02:15 23:04:49 15° 273° (W) 23:07:15 437.405
DX 1 03 Sep 23:05:46 23:09:58 52° 70° (ENE) 23:14:15 434.975-435.025
DELFI C3 03 Sep 23:07:11 23:11:02 40° 262° (W) 23:14:52 145.870
ANTELSAT 03 Sep 23:07:19 23:09:50 15° 86° (E) 23:12:29 437.575/2403.000
Oscar 11 03 Sep 23:08:37 23:12:29 30° 266° (W) 23:16:19 145.826/435.025
AAUSAT CUBESAT 2 03 Sep 23:09:28 23:11:57 15° 273° (W) 23:14:19 437.432
CINEMA 3 03 Sep 23:11:31 23:14:45 17° 275° (W) 23:17:52 145.822/145.860
UKube-1 03 Sep 23:12:53 23:17:06 55° 70° (ENE) 23:21:21 .
SPROUT 03 Sep 23:16:38 23:18:14 12° 55° (NE) 23:20:01 437.525
HO-68 03 Sep 23:18:01 23:22:30 17° 277° (W) 23:26:41 435.675
50 SAT 03 Sep 23:21:13 23:25:05 53° 71° (ENE) 23:28:56 437.505
RS-15 03 Sep 23:27:13 23:38:30 54° 27° (NNE) 23:50:20 29.354- 29.394
AIST 2 03 Sep 23:30:20 23:34:06 30° 34° (NNE) 23:37:49 435.215
CUBEBUG 1 03 Sep 23:31:50 23:35:52 39° 67° (ENE) 23:39:57 437.445
CUSAT 1 03 Sep 23:40:49 23:44:08 19° 80° (E) 23:48:16 437.405
ESTCUBE 1 03 Sep 23:41:12 23:45:36 58° 70° (ENE) 23:50:01 437.505/2401.250
AISAT 03 Sep 23:41:38 23:46:02 77° 73° (ENE) 23:50:31 437.250
BEESAT 3 03 Sep 23:51:23 23:55:21 51° 235° (SW) 23:59:13 437.485
AUBIESAT-1 03 Sep 23:52:19 23:54:24 14° 92° (E) 23:56:32 437.475
UNISAT 6 03 Sep 23:57:02 00:01:23 41° 97° (E) 00:05:37 437.425
M-CUBED/EXP-1 PRIME 04 Sep 00:00:29 00:03:27 20° 96° (E) 00:06:19 437.505
ZACube-1 04 Sep 00:00:32 00:03:35 17° 273° (W) 00:06:30 437.345
FUNcube-1 04 Sep 00:04:29 00:07:23 16° 274° (W) 00:10:08 145.935
TISAT 1 04 Sep 00:05:12 00:08:12 20° 60° (ENE) 00:11:19 437.305
BEESAT 2 04 Sep 00:08:42 00:12:38 46° 236° (SW) 00:16:30 435.950
VELOX 1 04 Sep 00:08:54 00:13:16 62° 258° (WSW) 00:17:42 145.980
HUMSAT D 04 Sep 00:15:56 00:19:27 23° 269° (W) 00:22:54 437.325/437.525
BUGSAT 1 04 Sep 00:17:17 00:19:57 16° 88° (E) 00:22:45 437.445
Cosmos 2504 04 Sep 00:19:01 00:27:21 80° 97° (E) 00:36:02 435.465 / 435.565
TIGRISAT 04 Sep 00:24:02 00:28:39 70° 102° (ESE) 00:33:07 435.000
DUCHIFAT 1 04 Sep 00:24:24 00:28:07 28° 94° (E) 00:31:50 145.980
POLYITAN 1 04 Sep 00:25:54 00:29:45 31° 95° (E) 00:33:36 437.675
POPSAT HIP 1 04 Sep 00:27:04 00:30:55 31° 95° (E) 00:34:46 437.405
DANDE 04 Sep 00:33:24 00:37:03 31° 87° (E) 00:41:50 436.750
ANTELSAT 04 Sep 00:42:40 00:47:18 78° 286° (WNW) 00:51:46 437.575/2403.000
NANOSAT C BR1 04 Sep 00:43:00 00:47:07 43° 98° (E) 00:51:13 145.865
DX 1 04 Sep 00:43:14 00:46:33 21° 269° (W) 00:49:49 434.975-435.025
QB50P2 04 Sep 00:44:48 00:48:58 47° 98° (E) 00:53:08 145.880/145.840
YUBILEINY 04 Sep 00:46:08 00:52:35 21° 312° (NW) 00:58:46 435.215
SPROUT 04 Sep 00:49:18 00:53:36 75° 74° (ENE) 00:57:57 437.525
UKube-1 04 Sep 00:50:25 00:53:36 19° 270° (W) 00:56:42 .
BEESAT 04 Sep 00:55:51 00:58:36 16° 55° (NE) 01:01:30 436.000
50 SAT 04 Sep 00:57:12 00:59:55 17° 270° (W) 01:02:33 437.505
QB50P1 04 Sep 00:58:07 01:02:24 61° 101° (ESE) 01:06:40 145.935-145.965
CUBEBUG 1 04 Sep 01:08:37 01:12:21 27° 267° (W) 01:16:04 437.445
AIST 2 04 Sep 01:08:46 01:12:53 54° 235° (SW) 01:16:56 435.215
ESTCUBE 1 04 Sep 01:19:32 01:22:52 20° 271° (W) 01:26:06 437.505/2401.250
AISAT 04 Sep 01:20:40 01:23:14 15° 273° (W) 01:25:39 437.250
SWISSCUBE 04 Sep 01:20:58 01:24:50 26° 61° (ENE) 01:28:46 437.505
CUSAT 1 04 Sep 01:21:08 01:25:44 70° 287° (WNW) 01:31:58 437.405
AUBIESAT-1 04 Sep 01:25:44 01:29:41 62° 295° (WNW) 01:33:18 437.475
PCSat 04 Sep 01:31:12 01:35:10 22° 109° (ESE) 01:39:18 145.827
SO-50 04 Sep 01:31:34 01:36:08 43° 122° (ESE) 01:40:51 436.795
UNISAT 6 04 Sep 01:34:03 01:38:02 29° 296° (WNW) 01:41:52 437.425
M-CUBED/EXP-1 PRIME 04 Sep 01:34:40 01:38:33 44° 298° (WNW) 01:42:06 437.505
TISAT 1 04 Sep 01:39:25 01:43:36 59° 259° (WSW) 01:47:50 437.305
RS-15 04 Sep 01:40:10 01:51:53 75° 235° (SW) 02:04:01 29.354- 29.394
GONETS M04 04 Sep 01:41:13 01:45:57 17° 72° (ENE) 01:51:08
BUGSAT 1 04 Sep 01:51:38 01:55:52 65° 288° (WNW) 02:00:06 437.445
DUCHIFAT 1 04 Sep 02:00:01 02:04:00 37° 293° (WNW) 02:07:55 145.980
ITUPSAT 1 04 Sep 02:00:24 02:04:58 47° 68° (ENE) 02:09:34 437.325
TIGRISAT 04 Sep 02:01:40 02:04:55 19° 301° (WNW) 02:08:01 435.000
POLYITAN 1 04 Sep 02:01:44 02:05:41 34° 294° (WNW) 02:09:33 437.675
POPSAT HIP 1 04 Sep 02:02:52 02:06:48 34° 294° (WNW) 02:10:41 437.405
Cosmos 2504 04 Sep 02:13:16 02:20:37 31° 301° (WNW) 02:28:01 435.465 / 435.565
DANDE 04 Sep 02:16:04 02:20:03 36° 297° (WNW) 02:25:18 436.750
NANOSAT C BR1 04 Sep 02:19:11 02:22:46 25° 297° (WNW) 02:26:16 145.865
STARS 04 Sep 02:20:21 02:21:37 11° 53° (NE) 02:23:03 437.465
ANTELSAT 04 Sep 02:21:02 02:23:20 14° 306° (NW) 02:25:27 437.575/2403.000
QB50P2 04 Sep 02:21:08 02:24:38 24° 297° (WNW) 02:28:03 145.880/145.840
Oscar 19 04 Sep 02:23:46 02:28:03 26° 91° (E) 02:32:24 437.125/150
SPROUT 04 Sep 02:27:47 02:30:16 15° 274° (W) 02:32:36 437.525
BEESAT 04 Sep 02:31:02 02:35:49 87° 70° (ENE) 02:40:37 436.000
QB50P1 04 Sep 02:34:46 02:37:53 19° 300° (WNW) 02:40:54 145.935-145.965
KKS-1 04 Sep 02:45:12 02:48:53 26° 63° (ENE) 02:52:39 437.445
SWISSCUBE 04 Sep 02:57:47 03:02:27 52° 260° (W) 03:07:07 437.505
O/OREOS (USA 219) 04 Sep 03:02:39 03:05:35 17° 38° (NE) 03:08:36 437.305
AUBIESAT-1 04 Sep 03:02:48 03:03:34 10° 315° (NW) 03:04:11 437.475
CUSAT 1 04 Sep 03:06:48 03:10:00 15° 315° (NW) 03:13:27 437.405
SO-50 04 Sep 03:12:03 03:16:44 43° 323° (NW) 03:21:30 436.795
PCSat 04 Sep 03:12:39 03:18:05 78° 310° (NW) 03:23:34 145.827
MOZHAYETS 4 04 Sep 03:25:28 03:27:30 13° 55° (NE) 03:29:43
BUGSAT 1 04 Sep 03:29:34 03:30:34 11° 306° (NW) 03:31:24 437.445
ITAMSAT 1 04 Sep 03:30:31 03:34:50 27° 92° (E) 03:39:13 435.822/435.867
GONETS M04 04 Sep 03:32:41 03:41:14 68° 94° (E) 03:49:56
Gurwin Techsat 1B 04 Sep 03:33:21 03:38:10 34° 95° (E) 03:43:01 435.225
ITUPSAT 1 04 Sep 03:39:03 03:43:07 26° 268° (W) 03:47:05 437.325
Cosmos 2499 04 Sep 03:51:16 03:58:18 30° 80° (E) 04:05:42 435.465 / 435.565
STARS 04 Sep 03:52:53 03:57:16 65° 71° (ENE) 04:01:42 437.465
RS-15 04 Sep 03:53:46 04:02:42 25° 258° (WSW) 04:11:18 29.354- 29.394
AO-7 04 Sep 03:59:51 04:04:15 16° 81° (E) 04:09:05 29.400- 29.500
Oscar 19 04 Sep 04:02:40 04:07:46 55° 292° (WNW) 04:12:50 437.125/150
BEESAT 04 Sep 04:11:44 04:14:25 14° 274° (W) 04:16:53 436.000
KKS-1 04 Sep 04:21:01 04:25:19 45° 261° (W) 04:29:40 437.445
JAS-2 04 Sep 04:21:56 04:28:44 48° 95° (E) 04:34:46 435.910
O/OREOS (USA 219) 04 Sep 04:41:13 04:45:52 77° 61° (ENE) 04:50:28 437.305
SO-50 04 Sep 04:54:51 04:58:28 20° 346° (NNW) 05:02:06 436.795
PCSat 04 Sep 04:57:56 05:02:22 24° 332° (NNW) 05:06:46 145.827
MOZHAYETS 4 04 Sep 04:59:25 05:04:01 75° 75° (ENE) 05:08:39
ITAMSAT 1 04 Sep 05:09:36 05:14:40 53° 292° (WNW) 05:19:42 435.822/435.867
Gurwin Techsat 1B 04 Sep 05:13:16 05:18:17 43° 295° (WNW) 05:23:16 435.225
HORYU 2 04 Sep 05:18:58 05:23:04 35° 96° (E) 05:27:09 437.375
CUBESAT XI-V 04 Sep 05:28:04 05:31:15 19° 59° (ENE) 05:34:33 437.345
GONETS M04 04 Sep 05:30:58 05:38:52 36° 299° (WNW) 05:46:42
STARS 04 Sep 05:31:08 05:34:11 18° 271° (W) 05:37:07 437.465
Cosmos 2499 04 Sep 05:42:00 05:50:42 79° 282° (WNW) 05:59:41 435.465 / 435.565
Oscar 19 04 Sep 05:44:10 05:46:08 12° 311° (NW) 05:47:55 437.125/150
VERMONT LUNAR 04 Sep 05:49:22 05:50:17 11° 185° (S) 05:51:11 437.305
AO-7 04 Sep 05:50:42 05:58:58 65° 105° (ESE) 06:07:12 29.400- 29.500
JAS-2 04 Sep 06:07:07 06:13:46 42° 299° (WNW) 06:19:37 435.910
PHONESAT 2.4 04 Sep 06:08:13 06:08:25 10° 164° (SSE) 06:08:39 2401.200-2431.200
O/OREOS (USA 219) 04 Sep 06:21:52 06:24:46 16° 259° (W) 06:27:28 437.305
SO-50 04 Sep 06:37:12 06:40:42 19° 11° (N) 06:44:14 436.795
MOZHAYETS 4 04 Sep 06:38:57 06:41:51 16° 273° (W) 06:44:35
PCSat 04 Sep 06:44:38 06:47:43 15° 357° (N) 06:50:48 145.827
STRAND 1 04 Sep 06:46:30 06:50:59 32° 63° (ENE) 06:55:31 437.568
ITAMSAT 1 04 Sep 06:51:24 06:53:11 12° 312° (NW) 06:54:45 435.822/435.867
YUBILEINY 04 Sep 06:52:16 06:58:58 24° 52° (NE) 07:05:52 435.215
HORYU 2 04 Sep 06:55:40 06:59:41 33° 295° (WNW) 07:03:38 437.375
CUBESAT XI-V 04 Sep 07:03:41 07:08:15 69° 258° (WSW) 07:12:53 437.345
Cubesat XI-IV 04 Sep 07:17:26 07:21:53 27° 92° (E) 07:26:24 437.490
PRISM 04 Sep 07:27:49 07:31:43 44° 69° (ENE) 07:35:38 437.425
GONETS M04 04 Sep 07:37:26 07:39:22 11° 329° (NNW) 07:40:55
Cosmos 2499 04 Sep 07:38:36 07:45:34 24° 308° (NW) 07:52:24 435.465 / 435.565
PHONESAT 2.4 04 Sep 07:43:33 07:45:26 14° 180° (S) 07:47:19 2401.200-2431.200
AO-7 04 Sep 07:43:55 07:51:29 40° 307° (NW) 07:58:56 29.400- 29.500
Cosmos 2491 04 Sep 07:52:10 07:56:55 17° 72° (ENE) 08:02:07 435.465 / 435.565
JAS-2 04 Sep 07:54:06 07:56:59 13° 322° (NW) 07:59:30 435.910
CUTE-I 04 Sep 08:00:48 08:06:04 58° 101° (E) 08:11:20 437.470
AIST 1 04 Sep 08:04:07 08:07:34 25° 89° (E) 08:11:06
Cosmos 2504 04 Sep 08:09:29 08:12:11 12° 36° (NE) 08:15:16 435.465 / 435.565
SO-50 04 Sep 08:17:53 08:22:33 38° 34° (NE) 08:27:09 436.795
STRAND 1 04 Sep 08:25:13 08:30:06 44° 262° (W) 08:34:58 437.568
CUSAT 1 04 Sep 08:27:58 08:29:56 11° 38° (NE) 08:32:21 437.405
PCSat 04 Sep 08:29:08 08:33:12 21° 23° (NNE) 08:37:18 145.827
